Location: Lake Sonoma
(38.7200°N, 123.0564°W)
Time: 06:07:17
(UTC-07:00)

ISS - All Passes

Search period start: 30 April 2016 00:00
Search period end: 10 May 2016 00:00
Orbit: 402 x 405 km, 51.6° (Epoch: 29 April)

Date Brightness Start Highest point End Pass type
(mag) Time Alt. Az. Time Alt. Az. Time Alt. Az.
30 Apr - 08:24:19 10° SSW 08:27:27 46° SE 08:30:36 10° ENE daylight
30 Apr - 10:01:26 10° W 10:04:04 22° NNW 10:06:42 10° NNE daylight
30 Apr - 13:18:06 10° N 13:19:13 11° NNE 13:20:20 10° NE daylight
30 Apr - 14:53:18 10° NW 14:56:24 38° NNE 14:59:29 10° ESE daylight
30 Apr - 16:30:11 10° W 16:32:40 20° SW 16:35:10 10° S daylight
01 May - 07:32:30 10° S 07:35:07 23° SE 07:37:45 10° ENE daylight
01 May - 09:08:25 10° W 09:11:26 35° NNW 09:14:30 10° NE daylight
01 May - 10:47:44 10° NNW 10:48:41 11° NNW 10:49:36 10° N daylight
01 May - 14:01:05 10° NNW 14:03:48 24° NNE 14:06:30 10° E daylight
01 May - 15:37:16 10° WNW 15:40:21 40° SW 15:43:26 10° SSE daylight
02 May - 06:41:42 10° SSE 06:42:51 11° SE 06:44:00 10° ESE daylight
02 May - 08:15:40 10° WSW 08:18:54 66° NW 08:22:10 10° NE daylight
02 May - 09:54:03 10° NW 09:55:53 14° NNW 09:57:42 10° NNE daylight
02 May - 13:08:56 10° NNW 13:11:06 16° NNE 13:13:15 10° ENE daylight
02 May - 14:44:39 10° NW 14:47:57 87° SSW 14:51:11 10° SE daylight
03 May - 07:23:13 10° SW 07:26:26 60° SE 07:29:40 10° ENE daylight
03 May - 09:00:41 10° WNW 09:03:09 19° NNW 09:05:37 10° NNE daylight
03 May - 12:16:54 10° N 12:18:20 12° NNE 12:19:45 10° NE daylight
03 May - 13:52:15 10° NW 13:55:25 47° NE 13:58:35 10° ESE daylight
03 May - 15:29:30 10° W 15:31:37 16° SW 15:33:44 10° S daylight
04 May - 06:31:12 10° SSW 06:34:03 28° SE 06:36:54 10° ENE daylight
04 May - 08:07:33 10° W 08:10:28 30° NNW 08:13:24 10° NNE daylight
04 May - 09:47:18 10° NNW 09:47:46 10° N 09:48:14 10° N daylight
04 May - 12:59:57 10° NNW 13:02:49 27° NNE 13:05:41 10° E daylight
04 May - 14:36:20 10° WNW 14:39:17 32° SW 14:42:14 10° SSE daylight
05 May - 05:39:52 10° SSE 05:41:44 14° SE 05:43:36 10° E visible
05 May - 07:14:40 10° WSW 07:17:52 52° NW 07:21:05 10° NE daylight
05 May - 08:53:21 10° NW 08:54:56 13° NNW 08:56:30 10° NNE daylight
05 May - 12:07:46 10° NNW 12:10:07 18° NNE 12:12:29 10° ENE daylight
05 May - 13:43:37 10° NW 13:46:52 68° SW 13:50:07 10° SE daylight
06 May - 06:22:06 10° SW 06:25:21 77° SE 06:28:37 10° NE daylight
06 May - 07:59:52 10° WNW 08:02:08 17° NNW 08:04:25 10° NNE daylight
06 May - 11:15:40 10° NNW 11:17:21 13° NNE 11:19:02 10° NE daylight
06 May - 12:51:08 10° NW 12:54:22 58° NE 12:57:35 10° ESE daylight
06 May - 14:28:53 10° W 14:30:27 13° SW 14:32:02 10° SSW daylight
07 May - 05:29:53 10° SSW 05:32:54 35° SE 05:35:56 10° ENE visible
07 May - 07:06:37 10° W 07:09:25 25° NNW 07:12:13 10° NNE daylight
07 May - 10:23:47 10° N 10:24:30 10° NNE 10:25:12 10° NNE daylight
07 May - 11:58:46 10° NW 12:01:46 32° NNE 12:04:44 10° E daylight
07 May - 13:35:22 10° WNW 13:38:08 25° SW 13:40:53 10° S daylight
08 May - 04:38:14 10° S 04:40:32 18° SE 04:42:50 10° E visible
08 May - 06:13:38 10° WSW 06:16:46 43° NNW 06:19:54 10° NE daylight
08 May - 07:52:36 10° NW 07:53:53 12° NNW 07:55:11 10° N daylight
08 May - 11:06:31 10° NNW 11:09:04 20° NNE 11:11:36 10° ENE daylight
08 May - 12:42:31 10° WNW 12:45:43 53° SW 12:48:53 10° SE daylight
09 May - 05:20:55 10° SW 05:24:11 84° NW 05:27:28 10° NE visible
09 May - 06:58:59 10° WNW 07:01:03 16° NNW 07:03:08 10° NNE daylight
09 May - 10:14:20 10° NNW 10:16:16 15° NNE 10:18:12 10° NE daylight
09 May - 11:49:56 10° NW 11:53:12 73° NE 11:56:28 10° ESE daylight
09 May - 13:28:43 10° WSW 13:29:13 10° SW 13:29:41 10° SW daylight
